Location: Waco, TX
(31.5480°N, 97.1670°W)
Time: 15:56:41
(UTC-06:00)

ISS - Pass Details

Date: 27 January 2021
Orbit: 417 x 422 km, 51.6° (Epoch: 07 March)

Event Time Altitude Azimuth Distance (km) Brightness Sun altitude
Rises 22:01:14 0° 328° (NNW) 2,373 - -51.5°
Reaches altitude 10° 22:03:40 10° 344° (NNW) 1,506 - -52.0°
Maximum altitude 22:06:22 22° 37° (NE) 989 - -52.6°
Drops below altitude 10° 22:09:02 10° 90° (E) 1,500 - -53.1°
Sets 22:11:27 0° 106° (ESE) 2,361 - -53.6°
